#timestamp,LO_Frequency,Hit,StdDev 
1645318815.7,286046995.7,N
1645318835.6,286046987.6,Y
1645318855.4,286046998.0,P
1645318875.2,286046998.9,N
1645318895.1,286046998.1,N
1645318896.0,286046998.1,N
1645318915.8,286046995.3,Y
1645318935.7,286046997.0,P
1645318955.5,286047002.2,P
1645318975.3,286046998.9,N
1645318995.2,286046998.2,N
1645319015.0,286046998.4,N
1645319015.9,286046998.4,N
1645319035.8,286046994.5,Y
1645319055.6,286046997.1,P
1645319075.4,286046995.6,P
1645319095.3,286047000.6,N
1645319115.1,286047001.5,N
1645319135.8,286046999.7,N
1645319155.7,286047002.3,N
1645319175.5,286047001.3,N
1645319195.3,286047002.0,N
1645319215.2,286046999.6,N
1645319235.0,286046995.2,N
1645319235.9,286046995.2,N
1645319255.8,286047001.7,N
1645319275.6,286047002.0,N
1645319295.4,286047001.0,N
1645319315.3,286047001.1,N
1645319335.1,286046999.9,N
1645319355.9,286047006.1,N
1645319375.7,286047007.9,N
1645319395.5,286047012.4,Y
1645319415.4,286047006.9,P
1645319435.2,286047006.5,N
1645319455.0,286047003.2,N
1645319455.9,286047003.2,N
1645319475.8,286047007.1,N
1645319495.6,286047005.7,N
1645319515.5,286046993.7,N
1645319535.3,286046990.1,N
1645319555.1,286046993.0,N
1645319575.9,286046994.6,N
1645319595.7,286046994.7,N
1645319615.5,286046991.8,N
1645319635.4,286046986.8,N
1645319655.2,286046977.3,Y
1645319675.1,286046986.0,P
1645319676.0,286046986.0,N
1645319695.8,286046990.7,N
1645319715.6,286046992.7,N
1645319735.5,286046988.1,N
1645319755.3,286046991.4,N
1645319775.2,286046993.5,N
1645319795.9,286046991.6,N
1645319815.7,286046988.2,Y
1645319835.6,286046998.3,P
1645319855.4,286046998.5,N
1645319875.2,286047001.8,N
1645319895.1,286047000.7,N
1645319896.0,286047000.7,N
1645319915.8,286046996.4,N
1645319935.7,286046999.3,N
1645319955.5,286046999.6,N
1645319975.3,286046994.8,N
1645319995.2,286046987.3,Y
1645320015.0,286046990.6,P
1645320015.9,286046990.6,N
1645320035.8,286046992.0,N
1645320055.6,286046993.6,N
1645320075.4,286046994.3,N
1645320095.3,286046994.4,N
1645320115.1,286046995.2,N
1645320135.8,286047001.8,N
1645320155.7,286047002.4,N
1645320175.5,286046998.1,N
1645320195.4,286046999.7,N
1645320215.2,286047001.1,N
1645320235.0,286046997.4,N
1645320235.9,286046997.4,N
1645320255.8,286046995.7,N
1645320275.6,286046995.8,N
1645320295.5,286046993.1,N
1645320315.3,286046990.1,N
1645320335.1,286046989.4,N
1645320355.9,286046987.4,Y
1645320375.7,286046995.1,P
1645320395.5,286046996.3,P
1645320415.4,286046989.7,P
1645320435.2,286046982.1,Y
1645320455.1,286046988.7,P
1645320456.0,286046988.7,P
1645320475.8,286046992.6,N
1645320495.6,286046989.6,Y
1645320515.5,286047007.2,P
1645320535.3,286047008.9,N
1645320555.2,286047014.4,N
1645320575.9,286047019.9,N
1645320595.7,286047017.9,N
1645320615.6,286047011.8,N
1645320635.4,286047005.7,N
1645320655.2,286047006.0,N
1645320675.1,286047009.6,N
1645320676.0,286047009.6,N
1645320695.8,286047012.9,N
1645320715.7,286047006.2,N
1645320735.5,286047006.3,N
1645320755.3,286047006.7,N
1645320775.2,286047010.2,N
1645320795.0,286047012.8,N
1645320795.9,286047012.8,N
1645320815.7,286047010.9,N
1645320835.6,286047010.4,N
1645320855.4,286047001.6,N
1645320875.3,286046999.2,N
1645320895.1,286046999.1,N
1645320896.0,286046999.1,N
1645320915.8,286046999.7,N
1645320935.7,286047002.2,N
1645320955.5,286047005.6,N
1645320975.3,286047009.7,N
1645320995.2,286047010.7,N
1645321015.0,286047011.4,N
1645321015.9,286047011.4,N
1645321035.8,286047006.1,N
1645321055.6,286047004.2,N
1645321075.4,286047008.0,N
1645321095.3,286047015.0,N
1645321115.1,286047015.0,Y
1645321135.9,286047008.9,P
1645321155.7,286047006.4,P
1645321175.5,286047010.7,P
1645321195.4,286047007.1,Y
1645321215.2,286046995.4,P
1645321235.0,286046998.8,N
1645321235.9,286046998.8,N
1645321255.8,286047000.1,N
1645321275.6,286046996.8,N
1645321295.5,286046994.6,N
1645321315.3,286046997.5,N
1645321335.1,286047003.0,N
1645321355.9,286047003.6,N
1645321375.7,286047003.5,N
1645321395.5,286047005.5,N
1645321415.4,286047005.6,N
1645321435.2,286047012.1,N
1645321455.1,286047016.9,Y
1645321456.0,286047016.9,P
1645321475.8,286047015.9,N
1645321495.6,286047011.8,N
1645321515.5,286047014.1,N
1645321535.3,286047012.7,N
1645321555.2,286047010.4,N
1645321575.9,286047006.2,N
1645321595.7,286047010.3,N
1645321615.6,286047007.4,N
1645321635.4,286047011.6,N
1645321655.2,286047012.7,Y
1645321675.1,286047003.3,P
1645321676.0,286047003.3,N
1645321695.8,286047003.5,N
1645321715.7,286047003.8,N
1645321735.5,286046999.0,N
1645321755.3,286047001.6,N
1645321775.2,286047000.9,N
1645321795.0,286047005.4,N
1645321795.9,286047005.4,N
1645321815.7,286046998.6,N
1645321835.6,286047001.4,N
1645321855.4,286047005.5,N
1645321875.3,286047005.3,N
1645321895.1,286047006.5,N
1645321896.0,286047006.5,N
1645321915.8,286047005.7,N
1645321935.7,286047006.0,N
1645321955.5,286046998.2,N
1645321975.3,286046996.5,N
1645321995.2,286047001.8,N
1645322015.0,286047006.0,N
1645322015.9,286047006.0,N
1645322035.8,286047007.6,N
1645322055.6,286047006.8,N
1645322075.4,286047007.4,N
1645322095.3,286047007.4,N
1645322115.1,286047005.8,N
1645322135.8,286047003.1,N
1645322155.7,286047007.5,N
1645322175.5,286047003.6,N
1645322195.4,286047003.5,N
1645322215.2,286047006.7,N
1645322235.0,286047005.1,N
1645322235.9,286047005.1,N
1645322255.8,286047004.3,N
1645322275.6,286047003.5,N
1645322295.4,286047000.1,N
1645322315.3,286047002.1,N
1645322335.1,286047007.4,N
1645322355.9,286047008.8,N
1645322375.7,286047006.2,N
1645322395.5,286047010.5,Y
